Regional Weather Roundup
Issued by NWS

Home | Current Version | Previous Version | Graphics & Text | Print | Product List | Glossary On
Versions: 1 2 3 4 5 6 7 8 9 10 11 12 13 14 15 16 17 18 19 20 21 22 23 24 25 26 27 28 29 30 31 32 33 34 35 36 37 38 39 40 41 42 43 44 45 46 47 48 49 50
000
ASUS43 KMPX 241401
RWRMN
WEATHER ROUNDUP FOR MINNESOTA
NATIONAL WEATHER SERVICE TWIN CITIES/CHANHASSEN MN
900 AM CDT THU JUL 24 2014


NOTE: "FAIR" INDICATES FEW OR NO CLOUDS BELOW 12,000 FEET WITH NO
SIGNIFICANT WEATHER AND/OR OBSTRUCTIONS TO VISIBILITY. N/A MEANS
CURRENT SKY AND/OR WEATHER CONDITIONS ARE NOT AVAILABLE.

MNZ060>063-068>070-241500-
   Twin Cities Metro

CITY           SKY/WX    TMP DP  RH WIND       PRES   REMARKS
TWIN CITIES    MOSUNNY   70  58  65 S5        30.15R
ST PAUL        SUNNY     70  59  68 SE6       30.15S
CRYSTAL        SUNNY     72  58  61 S8        30.13S
BLAINE         MOSUNNY   72  61  68 S7        30.14S
LAKEVILLE      SUNNY     66  59  77 SE5       30.15S
EDEN PRAIRIE   MOSUNNY   70  59  68 SE5       30.13F
SOUTH ST PAUL  SUNNY     70  59  68 SE5       30.15S
LAKE ELMO      FAIR      68  59  73 S6        30.16S
$$
MNZ001>005-007-008-013>017-022>024-027-028-241500-
   Northwest Minnesota

CITY           SKY/WX    TMP DP  RH WIND       PRES   REMARKS
BEMIDJI        SUNNY     65  57  76 S6        30.11F
HALLOCK        SUNNY     66  57  72 SE7       30.06S
ROSEAU         PTSUNNY   63  57  82 CALM      30.09F
WARROAD        PTSUNNY   63  59  88 SE3       30.09F
THIEF RVR FALL MOSUNNY   66  61  82 S8        30.08S
CROOKSTON      MOSUNNY   66  61  82 S8        30.07F
FOSSTON        MOSUNNY   66  57  72 S8        30.11R
DETROIT LAKES  MOSUNNY   68  57  68 S9        30.12F
MOORHEAD       MOSUNNY   70  63  78 S9        30.08F
PARK RAPIDS    CLOUDY    65  56  72 S6        30.13S
$$
MNZ006-009>011-018-025>026-241500-
   North Central Minnesota

CITY           SKY/WX    TMP DP  RH WIND       PRES   REMARKS
BAUDETTE       SUNNY     65  56  72 S6        30.12F
FLAG ISLAND    MOSUNNY   66  55  68 SE7       30.10S
INTL FALLS     MOSUNNY   64  54  69 S5        30.14S
WASKISH        SUNNY     64  57  77 CALM      30.11F
BIG FORK       SUNNY     64  57  77 S3        30.14F
LONGVILLE      SUNNY     61  61 100 CALM      30.13S
GRAND RAPIDS   SUNNY     63  54  72 SE5       30.15S
CRANE LAKE     SUNNY     61  54  77 CALM      30.16F
ORR            SUNNY     63  52  67 SE3       30.12F
COOK           SUNNY     63  55  77 CALM      30.15F
$$
MNZ012-019>021-037-241500-
   Northeast Minnesota

CITY           SKY/WX    TMP DP  RH WIND       PRES   REMARKS
DULUTH         MOSUNNY   67  53  61 VRB5      30.15F
ELY            SUNNY     64  52  63 CALM      30.16S
HIBBING        SUNNY     64  55  72 SE3       30.15F
EVELETH        MOSUNNY   63  54  72 CALM      30.16F
DULUTH HARBOR  MOSUNNY   59  55  88 E3        30.16S FOG
TWO HARBORS    SUNNY     64  54  68 CALM      30.14S
SILVER BAY     SUNNY     64  55  72 CALM      30.14S
GRAND MARAIS     N/A     54  48  80 SW3       30.14F
G MARAIS ARPRT SUNNY     64  48  55 S3        30.18F
$$
MNZ029>031-032-039>041-046>048-054>057-064-241500-
   West Central Minnesota

CITY           SKY/WX    TMP DP  RH WIND       PRES   REMARKS
FERGUS FALLS   MOSUNNY   70  54  56 SE9       30.10S
WHEATON        SUNNY     64  57  77 SE10      30.09F
MORRIS         MOSUNNY   66  59  77 SE7       30.09F
ALEXANDRIA     SUNNY     69  55  60 S10       30.14F
ELBOW LAKE     FAIR      67  57  69 SE9       30.11F
WADENA         MOSUNNY   66  57  72 S6        30.13R
GLENWOOD       SUNNY     68  57  68 SE7       30.13F
APPLETON       MOSUNNY   70  57  64 SE7       30.09F
BENSON         MOSUNNY   66  57  72 S9        30.11F
ORTONVILLE     MOSUNNY   66  57  72 SE9       30.08F
MADISON        MOSUNNY   68  57  68 SE10      30.09F
WILLMAR        FAIR      72  57  60 SE8       30.13F
$$
MNZ033>034-036-042>043-049>051-058-059-241500-
   Central Minnesota

CITY           SKY/WX    TMP DP  RH WIND       PRES   REMARKS
ST CLOUD       MOSUNNY   68  57  68 S3        30.14S
SAUK CENTRE    FAIR      67  57  69 SE6       30.13F
PAYNESVILLE    MOSUNNY   65  55  69 E7        30.14F
AITKIN         SUNNY     70  61  73 CALM      30.13S
PINE RIVER     SUNNY     63  59  88 CALM      30.17R
BRAINERD       SUNNY     66  59  78 S5        30.14F
STAPLES        MOSUNNY   66  57  72 S3        30.14R
LONG PRAIRIE   FAIR      63  55  77 SE3       30.15S
LITTLE FALLS   MOSUNNY   68  55  64 S3        30.14S
LITCHFIELD       N/A     68  63  83 CALM      30.15S
BUFFALO        MOSUNNY   69  58  66 SE3       30.15F
MAPLE LAKE     MOSUNNY   71  62  72 CALM      30.15S
$$
MNZ037-044-045-052-053-241500-
   East Central Minnesota

CITY           SKY/WX    TMP DP  RH WIND       PRES   REMARKS
PRINCETON      SUNNY     72  61  68 SE5       30.14S
MORA           SUNNY     64  57  77 S6        30.16S
CAMBRIDGE      SUNNY     72  57  60 S5        30.13S
RUSH CITY      SUNNY     67  57  71 SE3       30.15S
MOOSE LAKE     MOSUNNY   68  55  64 S5        30.13S
HINCKLEY       FAIR      66  57  72 S6        30.15S
CLOQUET        SUNNY     64  55  72 SE3       30.15F
MCGREGOR       SUNNY     64  57  77 S5        30.15S
$$
MNZ071>073-080-081-089-090-097-098-241500-
   Southwest Minnesota

CITY           SKY/WX    TMP DP  RH WIND       PRES   REMARKS
MONTEVIDEO     MOSUNNY   72  59  64 S7        30.12
GRANITE FALLS  MOSUNNY   66  56  70 SE7       30.15S
CANBY          PTSUNNY   69  59  71 SE10      30.09F
MARSHALL       PTSUNNY   70  55  60 SE9       30.11F
REDWOOD FALLS  SUNNY     68  57  68 SE5       30.13F
OLIVIA         SUNNY     70  57  64 SE5       30.13S
PIPESTONE      CLOUDY    66  57  72 SE14      30.09F
WINDOM         PTSUNNY   72  57  60 SW6       30.16R
WORTHINGTON    CLOUDY    66  57  72 SW6       30.19R
JACKSON        PTSUNNY   68  55  64 SW5       30.17R
TRACY            N/A    N/A N/A N/A MISG        N/A
SLAYTON        CLOUDY    68  57  68 CALM      30.16S
$$
MNZ065>067-074>077-082>085-091>093-241500-
   South Central Minnesota

CITY           SKY/WX    TMP DP  RH WIND       PRES   REMARKS
MANKATO        SUNNY     66  55  68 SE8       30.14F
NEW ULM        SUNNY     70  57  64 SE5       30.13F
ST JAMES       SUNNY     70  57  64 CALM      30.15S
FAIRMONT       SUNNY     70  57  64 SE3       30.15R
GLENCOE        MOSUNNY   69  56  62 CALM      30.14S
FARIBAULT      MOSUNNY   73  54  49 SE3       30.15F
OWATONNA       SUNNY     70  55  60 S3        30.16S
WASECA         SUNNY     68  55  64 S5        30.17S
ALBERT LEA     SUNNY     72  57  60 SE5       30.16S
$$
MNZ078>079-086>088-094>096-241500-
   Southeast Minnesota

CITY           SKY/WX    TMP DP  RH WIND       PRES   REMARKS
ROCHESTER      SUNNY     68  60  75 S7        30.18S
RED WING       SUNNY     72  61  68 SE5       30.15R
STANTON        SUNNY     70  60  70 S5        30.15R
DODGE CENTER   MOSUNNY   66  61  82 S5        30.17S
WINONA         SUNNY     68  63  83 E5        30.16S
AUSTIN         MOSUNNY   70  57  64 SW3       30.17R
PRESTON        SUNNY     64  62  94 CALM      30.18R
$$
ABBREVIATIONS USED IN REMARKS
   TC - TEMPERATURES IN CELSIUS
  WCI - WIND CHILL INDEX
   HX - HEAT INDEX
  VSB - VISIBILITY
$$



USA.gov is the U.S. government's official web portal to all federal, state and local government web resources and services.